WXM80 ListenWXM80 Stop

You find our weather info also at:

UK Metoffice

WeatherCloud

Weather Underground

Northeastern Weather Network

AWEKAS

Citizen Weather Observer Program (CWOP)

HAMweather, WeatherForYou, PWS Weather


Weather Underground History page Text

Daily Summary for June 4, 2017 Units:  Metric    English   Both
« Previous Day
Next Day »
Daily Weekly Monthly Yearly Custom
  High: Low: Average:
Temperature: 22.9 °C 10.7 °C 15.9 °C
Dew Point: 14.4 °C 8.2 °C 11.8 °C
Humidity: 93 % 54 % 78 %
Wind Speed: 6.3 km/h 0 km/h 0.6 km/h
Wind Gust: 13 km/h - -
Wind:- - South
Pressure: 1015.5 hPa 1009 hPa -
Precipitation: 1.52 mm    
Historical Graphs
 
 
Tabular Data for June 4, 2017
Time Temperature Dew Point Pressure Wind Wind Speed Wind Gust Humidity Rainfall Rate (Hourly)
00:01 15.8 °C 9.9 °C 1014.1 hPa WNW 0.2 km/h 1.9 km/h 68 % 0 mm
00:03 15.7 °C 9.8 °C 1014.1 hPa Calm     68 % 0 mm
00:08 15.6 °C 9.5 °C 1014.1 hPa Calm     67 % 0 mm
00:13 15.5 °C 9.6 °C 1014.1 hPa WNW 0.3 km/h 3.7 km/h 68 % 0 mm
00:18 15.4 °C 9.5 °C 1014.1 hPa Calm     68 % 0 mm
00:23 15.3 °C 9.6 °C 1014.1 hPa Calm     69 % 0 mm
00:28 15.2 °C 9.8 °C 1014.1 hPa Calm     70 % 0 mm
00:33 15.1 °C 9.9 °C 1014.1 hPa Calm     71 % 0 mm
00:38 15 °C 9.8 °C 1014.1 hPa Calm     71 % 0 mm
00:43 14.9 °C 9.7 °C 1014.1 hPa WNW 1.9 km/h 3.2 km/h 71 % 0 mm
00:48 14.8 °C 9.6 °C 1014.1 hPa Calm   3.7 km/h 71 % 0 mm
00:53 14.7 °C 9.4 °C 1014.1 hPa WNW 0.2 km/h 1.9 km/h 71 % 0 mm
00:58 14.6 °C 9.4 °C 1014.1 hPa Calm     71 % 0 mm
01:03 14.6 °C 9.8 °C 1014.4 hPa Calm     73 % 0 mm
01:09 14.4 °C 9.9 °C 1014.4 hPa WNW 0.3 km/h 1.9 km/h 74 % 0 mm
01:13 14.3 °C 9.6 °C 1014.4 hPa Calm     73 % 0 mm
01:18 14.3 °C 9.7 °C 1014.4 hPa Calm   1.9 km/h 74 % 0 mm
01:23 14.2 °C 9.8 °C 1014.4 hPa WNW 1.9 km/h 3.2 km/h 75 % 0 mm
01:28 14.1 °C 9.9 °C 1014.8 hPa WNW 0.5 km/h 1.9 km/h 76 % 0 mm
01:34 14 °C 9.6 °C 1014.8 hPa Calm   1.6 km/h 75 % 0 mm
01:39 13.9 °C 9.8 °C 1014.8 hPa West 1.9 km/h 5.6 km/h 76 % 0 mm
01:44 13.8 °C 9.9 °C 1014.8 hPa West 2.1 km/h 3.7 km/h 77 % 0 mm
01:49 13.8 °C 9.8 °C 1014.8 hPa West 2.4 km/h 3.7 km/h 77 % 0 mm
01:54 13.8 °C 10 °C 1014.8 hPa West 2.3 km/h 3.7 km/h 78 % 0 mm
01:59 13.8 °C 10 °C 1015.1 hPa WSW 1.3 km/h 3.7 km/h 78 % 0 mm
02:04 13.8 °C 9.8 °C 1015.1 hPa WSW 0.2 km/h 1.9 km/h 77 % 0 mm
02:07 13.8 °C 9.8 °C 1014.8 hPa WSW 0.3 km/h 1.9 km/h 77 % 0 mm
02:12 13.7 °C 9.8 °C 1014.8 hPa Calm     77 % 0 mm
02:17 13.7 °C 9.8 °C 1015.1 hPa WSW 1 km/h 3.7 km/h 77 % 0 mm
02:22 13.7 °C 9.8 °C 1015.1 hPa Calm     77 % 0 mm
02:27 13.7 °C 9.7 °C 1015.1 hPa Calm     77 % 0 mm
02:30 13.7 °C 9.7 °C 1015.1 hPa Calm     77 % 0 mm
02:35 13.6 °C 9.6 °C 1015.1 hPa Calm     77 % 0 mm
02:41 13.5 °C 9.6 °C 1014.8 hPa Calm     77 % 0 mm
02:46 13.4 °C 9.7 °C 1015.1 hPa Calm     78 % 0 mm
02:51 13.3 °C 9.8 °C 1015.1 hPa Calm     79 % 0 mm
02:56 13.2 °C 9.7 °C 1015.1 hPa Calm   3.2 km/h 79 % 0 mm
03:01 13.1 °C 9.7 °C 1015.1 hPa Calm     80 % 0 mm
03:06 13 °C 9.6 °C 1015.1 hPa Calm     80 % 0 mm
03:11 12.9 °C 9.5 °C 1015.1 hPa Calm     80 % 0 mm
03:16 12.8 °C 9.6 °C 1015.1 hPa Calm     81 % 0 mm
03:21 12.7 °C 9.5 °C 1015.1 hPa Calm     81 % 0 mm
03:26 12.6 °C 9.4 °C 1015.1 hPa WSW 0.2 km/h 1.9 km/h 81 % 0 mm
03:31 12.5 °C 9.3 °C 1015.1 hPa Calm     81 % 0 mm
03:36 12.4 °C 9.3 °C 1014.8 hPa Calm     81 % 0 mm
03:41 12.3 °C 9.3 °C 1014.8 hPa Calm     82 % 0 mm
03:46 12.2 °C 9.2 °C 1014.8 hPa Calm     82 % 0 mm
03:51 12.2 °C 9.2 °C 1014.8 hPa WSW 1 km/h 3.7 km/h 82 % 0 mm
03:56 12.1 °C 9.3 °C 1014.8 hPa Calm     83 % 0 mm
04:01 12 °C 9.2 °C 1014.8 hPa Calm   1.9 km/h 83 % 0 mm
04:06 12 °C 9.2 °C 1014.8 hPa Calm     83 % 0 mm
04:11 11.9 °C 9.2 °C 1015.1 hPa Calm     83 % 0 mm
04:16 11.9 °C 9.2 °C 1015.1 hPa Calm     83 % 0 mm
04:21 11.9 °C 9.2 °C 1015.1 hPa Calm     83 % 0 mm
04:26 12 °C 9.2 °C 1015.1 hPa Calm   1.9 km/h 83 % 0 mm
04:31 11.9 °C 9.2 °C 1015.1 hPa Calm     83 % 0 mm
04:36 11.9 °C 9.2 °C 1015.1 hPa Calm     83 % 0 mm
04:41 11.9 °C 9.2 °C 1015.1 hPa Calm     83 % 0 mm
04:46 11.9 °C 9.1 °C 1015.1 hPa Calm     83 % 0 mm
04:51 11.8 °C 9.1 °C 1015.1 hPa Calm     83 % 0 mm
04:56 11.8 °C 9.2 °C 1015.1 hPa Calm     84 % 0 mm
05:01 11.7 °C 8.9 °C 1014.8 hPa Calm     83 % 0 mm
05:06 11.6 °C 9 °C 1014.8 hPa Calm     84 % 0 mm
05:12 11.6 °C 8.9 °C 1015.1 hPa Calm     84 % 0 mm
05:17 11.4 °C 8.8 °C 1015.1 hPa Calm   1.9 km/h 84 % 0 mm
05:22 11.4 °C 8.8 °C 1014.8 hPa Calm     84 % 0 mm
05:27 11.3 °C 8.7 °C 1015.1 hPa Calm     84 % 0 mm
05:32 11.2 °C 8.6 °C 1014.8 hPa Calm     84 % 0 mm
05:37 11.1 °C 8.6 °C 1015.1 hPa Calm     85 % 0 mm
05:42 11 °C 8.6 °C 1015.1 hPa Calm     85 % 0 mm
05:47 10.9 °C 8.5 °C 1015.1 hPa Calm     85 % 0 mm
05:52 10.8 °C 8.2 °C 1015.1 hPa WSW 0.2 km/h 1.9 km/h 84 % 0 mm
05:57 10.8 °C 8.3 °C 1015.1 hPa Calm     85 % 0 mm
06:02 10.7 °C 8.3 °C 1015.1 hPa Calm     85 % 0 mm
06:07 10.7 °C 8.2 °C 1015.1 hPa Calm     85 % 0 mm
06:12 10.7 °C 8.6 °C 1015.5 hPa Calm     87 % 0 mm
06:18 10.7 °C 8.6 °C 1015.5 hPa Calm     87 % 0 mm
06:23 10.7 °C 8.7 °C 1015.5 hPa Calm   1.9 km/h 87 % 0 mm
06:28 10.8 °C 8.9 °C 1015.5 hPa Calm     88 % 0 mm
06:33 10.9 °C 9.2 °C 1015.5 hPa Calm     89 % 0 mm
06:38 11.1 °C 9.6 °C 1015.5 hPa Calm     90 % 0 mm
06:43 11.3 °C 9.7 °C 1015.5 hPa Calm     90 % 0 mm
06:48 11.6 °C 9.8 °C 1015.5 hPa Calm     89 % 0 mm
06:53 11.9 °C 10.2 °C 1015.5 hPa Calm     89 % 0 mm
06:58 12.3 °C 10.7 °C 1015.5 hPa Calm     90 % 0 mm
07:03 12.6 °C 10.8 °C 1015.5 hPa Calm     89 % 0 mm
07:08 13 °C 10.9 °C 1015.5 hPa Calm     87 % 0 mm
07:13 13.4 °C 11.2 °C 1015.1 hPa Calm     86 % 0 mm
07:18 13.9 °C 11.4 °C 1015.1 hPa Calm     85 % 0 mm
07:23 14.4 °C 11.9 °C 1015.5 hPa Calm     85 % 0 mm
07:28 14.8 °C 11.9 °C 1015.5 hPa Calm   1.9 km/h 83 % 0 mm
07:33 15.2 °C 10.6 °C 1015.5 hPa Calm   1.9 km/h 74 % 0 mm
07:38 15.5 °C 10.9 °C 1015.5 hPa Calm     74 % 0 mm
07:43 15.7 °C 10.9 °C 1015.1 hPa Calm     73 % 0 mm
07:48 15.9 °C 11.3 °C 1015.1 hPa Calm     74 % 0 mm
07:53 16.1 °C 11.2 °C 1015.1 hPa Calm     73 % 0 mm
07:59 16.3 °C 11.2 °C 1015.1 hPa Calm     72 % 0 mm
08:03 16.4 °C 11.8 °C 1015.5 hPa NNW 1 km/h 1.9 km/h 74 % 0 mm
08:08 16.6 °C 11.6 °C 1015.5 hPa NNW 0.2 km/h 1.9 km/h 72 % 0 mm
08:14 16.8 °C 12.2 °C 1015.5 hPa NW 1 km/h 4.8 km/h 74 % 0 mm
08:19 17 °C 11.7 °C 1015.5 hPa WNW 0.8 km/h 5.6 km/h 71 % 0 mm
08:24 17.2 °C 12.1 °C 1015.5 hPa WNW 1.9 km/h 3.7 km/h 72 % 0 mm
08:29 17.3 °C 12 °C 1015.5 hPa WNW 0.3 km/h 3.7 km/h 71 % 0 mm
08:34 17.4 °C 12.1 °C 1015.5 hPa WNW 0.6 km/h 1.9 km/h 71 % 0 mm
08:39 17.6 °C 11.6 °C 1015.5 hPa SW 3.1 km/h 7.4 km/h 68 % 0 mm
08:44 17.6 °C 10.2 °C 1015.5 hPa WSW 1.4 km/h 7.4 km/h 62 % 0 mm
08:49 17.7 °C 10.3 °C 1015.5 hPa WSW 0.5 km/h 1.9 km/h 62 % 0 mm
08:54 17.8 °C 10.7 °C 1015.5 hPa WNW 2.4 km/h 5.6 km/h 63 % 0 mm
08:59 17.9 °C 11 °C 1015.5 hPa WNW 1.1 km/h 3.7 km/h 64 % 0 mm
09:04 17.9 °C 11.1 °C 1015.5 hPa Calm   1.6 km/h 64 % 0 mm
09:09 17.9 °C 10.1 °C 1015.5 hPa NW 1.6 km/h 3.2 km/h 60 % 0 mm
09:14 18.1 °C 10.7 °C 1015.5 hPa Calm     62 % 0 mm
09:19 18.1 °C 11.6 °C 1015.5 hPa NW 0.2 km/h 1.9 km/h 66 % 0 mm
09:24 18.2 °C 12.8 °C 1015.5 hPa NW 1 km/h 4.8 km/h 71 % 0 mm
09:29 18.2 °C 12.9 °C 1015.5 hPa North 1.8 km/h 5.6 km/h 71 % 0 mm
09:34 18.3 °C 12.8 °C 1015.5 hPa NW 0.6 km/h 5.6 km/h 70 % 0 mm
09:39 18.6 °C 12.6 °C 1015.5 hPa NW 0.6 km/h 5.6 km/h 68 % 0 mm
09:44 18.8 °C 12.1 °C 1015.1 hPa NW 0.5 km/h 3.2 km/h 65 % 0 mm
09:49 19.3 °C 13.3 °C 1015.1 hPa NE 2.4 km/h 6.4 km/h 68 % 0 mm
09:54 19.8 °C 13.8 °C 1015.1 hPa NNW 0.8 km/h 5.6 km/h 68 % 0 mm
10:00 20.3 °C 13.3 °C 1015.1 hPa Calm   3.7 km/h 64 % 0 mm
10:05 20.9 °C 13.8 °C 1015.1 hPa NW 2.4 km/h 5.6 km/h 64 % 0 mm
10:10 21.6 °C 13.7 °C 1015.1 hPa NNE 1.4 km/h 5.6 km/h 61 % 0 mm
10:15 22 °C 13.6 °C 1015.1 hPa North 2.3 km/h 5.6 km/h 59 % 0 mm
10:20 22.4 °C 14.3 °C 1015.1 hPa North 2.4 km/h 5.6 km/h 60 % 0 mm
10:21 22.6 °C 14.4 °C 1015.1 hPa NNE 4.7 km/h 5.6 km/h 60 % 0 mm
10:26 22.8 °C 14.1 °C 1015.1 hPa North 4.5 km/h 5.6 km/h 58 % 0 mm
10:31 22.9 °C 13.9 °C 1015.1 hPa NNE 4.5 km/h 6.4 km/h 57 % 0 mm
10:36 22.9 °C 14.2 °C 1015.1 hPa NE 0.8 km/h 3.7 km/h 58 % 0 mm
10:41 22.8 °C 13.3 °C 1015.1 hPa NNE 4 km/h 6.4 km/h 55 % 0 mm
10:46 22.7 °C 13.7 °C 1015.1 hPa NNE 4.7 km/h 6.4 km/h 57 % 0 mm
10:51 22.4 °C 14.2 °C 1015.1 hPa NNE 2.9 km/h 5.6 km/h 60 % 0 mm
10:56 22.3 °C 13.9 °C 1015.1 hPa NNE 1.9 km/h 5.6 km/h 59 % 0 mm
11:01 22.1 °C 13.4 °C 1015.1 hPa NE 1.3 km/h 3.7 km/h 58 % 0 mm
11:06 21.9 °C 13.8 °C 1015.1 hPa NE 2.1 km/h 2.1 km/h 60 % 0 mm
11:11 21.8 °C 13.4 °C 1014.8 hPa ENE 3.5 km/h 5.6 km/h 59 % 0 mm
11:16 21.8 °C 13.4 °C 1014.8 hPa NE 1.9 km/h 3.7 km/h 59 % 0 mm
11:21 21.7 °C 13.6 °C 1014.8 hPa ENE 1.6 km/h 4.8 km/h 60 % 0 mm
11:26 21.4 °C 13.3 °C 1014.8 hPa ENE 0.8 km/h 3.2 km/h 60 % 0 mm
11:31 21.1 °C 13.2 °C 1014.4 hPa NE 0.8 km/h 5.6 km/h 61 % 0 mm
11:36 20.7 °C 13.1 °C 1014.4 hPa ENE 1.9 km/h 3.7 km/h 62 % 0 mm
11:41 20.3 °C 13.2 °C 1014.4 hPa ENE 0.2 km/h 5.6 km/h 64 % 0 mm
11:47 20.2 °C 13.2 °C 1014.4 hPa ENE 1 km/h   64 % 0 mm
11:52 20.2 °C 12.9 °C 1014.4 hPa Calm   1.9 km/h 63 % 0 mm
11:57 20.3 °C 13.7 °C 1014.1 hPa ENE 1.1 km/h 3.7 km/h 66 % 0 mm
12:02 20.3 °C 12.3 °C 1014.4 hPa Calm   1.9 km/h 60 % 0 mm
12:07 20.4 °C 12.6 °C 1014.1 hPa ENE 0.8 km/h 1.9 km/h 61 % 0 mm
12:12 20.5 °C 11.7 °C 1013.8 hPa Calm     57 % 0 mm
12:17 20.6 °C 11.4 °C 1013.8 hPa Calm   1.9 km/h 56 % 0 mm
12:22 20.7 °C 11.9 °C 1013.8 hPa East 1.1 km/h 3.7 km/h 57 % 0 mm
12:27 20.8 °C 12.8 °C 1013.8 hPa East 1.6 km/h 3.7 km/h 60 % 0 mm
12:32 21 °C 11.9 °C 1013.4 hPa NE 1.3 km/h 3.7 km/h 56 % 0 mm
12:37 21.1 °C 11.4 °C 1013.4 hPa NE 2.4 km/h 3.7 km/h 54 % 0 mm
12:42 21.1 °C 11.7 °C 1013.4 hPa ENE 0.3 km/h 5.6 km/h 55 % 0 mm
12:47 21.1 °C 11.7 °C 1013.4 hPa NNE 2.1 km/h 3.7 km/h 55 % 0 mm
12:52 21 °C 11.6 °C 1013.4 hPa NNE 0.5 km/h 1.9 km/h 55 % 0 mm
12:57 20.9 °C 11.8 °C 1013.1 hPa NNE 0.5 km/h 3.2 km/h 56 % 0 mm
13:02 20.7 °C 11.6 °C 1013.1 hPa NNE 0.8 km/h 1.9 km/h 56 % 0 mm
13:07 20.7 °C 11.3 °C 1013.1 hPa Calm   1.9 km/h 55 % 0 mm
13:13 20.6 °C 12 °C 1013.1 hPa Calm     58 % 0 mm
13:18 20.4 °C 11.3 °C 1013.1 hPa Calm     56 % 0 mm
13:23 20.3 °C 11.2 °C 1013.1 hPa Calm     56 % 0 mm
13:28 20.2 °C 11.6 °C 1013.1 hPa WNW 1.8 km/h 4.8 km/h 58 % 0 mm
13:33 20.1 °C 11.3 °C 1013.1 hPa SW 1.1 km/h 3.7 km/h 57 % 0 mm
13:38 20 °C 11.5 °C 1013.1 hPa SSW 1 km/h 3.7 km/h 58 % 0 mm
13:43 19.9 °C 11.7 °C 1013.1 hPa SSW 0.2 km/h 1.9 km/h 59 % 0 mm
13:53 19.8 °C 11.6 °C 1013.4 hPa SW 1.8 km/h 3.7 km/h 59 % 0 mm
13:58 19.8 °C 11.6 °C 1013.8 hPa WSW 1 km/h 3.7 km/h 59 % 0 mm
14:03 19.7 °C 11.5 °C 1013.8 hPa WSW 2.1 km/h 5.6 km/h 59 % 0 mm
14:08 19.7 °C 11.4 °C 1013.8 hPa WSW 1.8 km/h 4.8 km/h 59 % 0 mm
14:13 19.7 °C 11.9 °C 1013.8 hPa SW 6.3 km/h 13 km/h 61 % 0 mm
14:18 19.6 °C 11.9 °C 1013.8 hPa SW 2.1 km/h 3.7 km/h 61 % 0 mm
14:23 19.6 °C 12.3 °C 1013.8 hPa WSW 6.1 km/h 9.3 km/h 63 % 0 mm
14:28 19.5 °C 12.5 °C 1013.8 hPa SW 5.1 km/h 9.3 km/h 64 % 0 mm
14:33 19.4 °C 12.2 °C 1014.1 hPa WSW 3.5 km/h 13 km/h 63 % 0 mm
14:38 19.3 °C 12.8 °C 1014.1 hPa SSW 4.3 km/h 9.7 km/h 66 % 0 mm
14:43 19.1 °C 13.1 °C 1014.1 hPa WSW 2.6 km/h 5.6 km/h 68 % 0 mm
14:48 18.8 °C 13.2 °C 1014.1 hPa WSW 4.3 km/h 9.3 km/h 70 % 0 mm
14:53 18.6 °C 13.4 °C 1014.1 hPa Calm     72 % 0.25 mm
14:58 18.4 °C 13.7 °C 1014.1 hPa West 3.9 km/h 5.6 km/h 74 % 0.25 mm
15:03 18.2 °C 13.7 °C 1013.8 hPa SW 0.2 km/h 3.7 km/h 75 % 0.25 mm
15:08 17.9 °C 13.4 °C 1013.8 hPa Calm   1.9 km/h 75 % 0.51 mm
15:13 17.7 °C 13.4 °C 1013.8 hPa SW 0.2 km/h 1.9 km/h 76 % 0.76 mm
15:18 17.6 °C 13.7 °C 1013.8 hPa Calm     78 % 0.76 mm
15:23 17.3 °C 13.7 °C 1013.8 hPa SW 0.5 km/h 1.9 km/h 79 % 0.76 mm
15:28 17.2 °C 13.7 °C 1013.8 hPa SW 0.5 km/h   80 % 1.02 mm
15:33 16.9 °C 13.7 °C 1013.4 hPa Calm   3.7 km/h 81 % 1.02 mm
15:38 16.7 °C 13.8 °C 1013.1 hPa Calm     83 % 1.02 mm
15:43 16.6 °C 13.7 °C 1013.1 hPa Calm     83 % 1.02 mm
15:48 16.5 °C 13.8 °C 1013.1 hPa SW 0.3 km/h 3.7 km/h 84 % 1.02 mm
15:54 16.3 °C 13.6 °C 1012.8 hPa SW 0.3 km/h 1.9 km/h 84 % 1.02 mm
15:59 16.1 °C 13.4 °C 1012.8 hPa SE 0.6 km/h 5.6 km/h 84 % 1.02 mm
16:04 16.1 °C 13.6 °C 1012.4 hPa Calm   1.9 km/h 85 % 1.02 mm
16:09 15.9 °C 13.4 °C 1012.8 hPa SE 0.2 km/h 5.6 km/h 85 % 0.76 mm
16:14 15.8 °C 13.5 °C 1012.8 hPa Calm   1.6 km/h 86 % 0.51 mm
16:19 15.8 °C 13.5 °C 1012.4 hPa Calm     86 % 0.76 mm
16:24 15.8 °C 13.7 °C 1012.4 hPa Calm     87 % 0.76 mm
16:29 15.8 °C 13.6 °C 1012.1 hPa SSE 4 km/h 6.4 km/h 87 % 0.51 mm
16:34 15.7 °C 13.3 °C 1011.7 hPa SE 0.3 km/h 3.7 km/h 86 % 0.51 mm
16:35 15.6 °C 13.3 °C 1011.7 hPa SSE 1.3 km/h 3.7 km/h 86 % 0.51 mm
16:40 15.6 °C 13.2 °C 1011.7 hPa SE 2.3 km/h 5.6 km/h 86 % 0.51 mm
16:45 15.5 °C 13.2 °C 1011.7 hPa SE 0.3 km/h 3.7 km/h 86 % 0.51 mm
16:50 15.5 °C 13.3 °C 1011.4 hPa SE 1.3 km/h 3.7 km/h 87 % 0.51 mm
16:55 15.4 °C 13.1 °C 1011.4 hPa SE 0.6 km/h 5.6 km/h 86 % 0.25 mm
17:00 15.4 °C 13.1 °C 1011.4 hPa SE 0.6 km/h 5.6 km/h 86 % 0.25 mm
17:05 15.4 °C 13.1 °C 1011.4 hPa SE 1 km/h 4.8 km/h 86 % 0.25 mm
17:10 15.4 °C 13.1 °C 1011.1 hPa SE 3.5 km/h 7.4 km/h 86 % 0.25 mm
17:15 15.4 °C 12.9 °C 1011.1 hPa SE 2.7 km/h 5.6 km/h 85 % 0 mm
17:20 15.4 °C 13.1 °C 1011.1 hPa SE 0.2 km/h 1.9 km/h 86 % 0 mm
17:25 15.4 °C 13.1 °C 1011.1 hPa Calm   1.6 km/h 86 % 0 mm
17:30 15.5 °C 13.3 °C 1011.1 hPa SE 1 km/h 5.6 km/h 87 % 0 mm
17:35 15.5 °C 13.3 °C 1011.1 hPa Calm     87 % 0 mm
17:40 15.5 °C 13.3 °C 1011.1 hPa SE 0.3 km/h 1.9 km/h 87 % 0 mm
17:45 15.5 °C 13.3 °C 1011.1 hPa Calm     87 % 0 mm
17:50 15.5 °C 13.3 °C 1011.1 hPa SE 0.5 km/h 3.7 km/h 87 % 0 mm
17:55 15.5 °C 13.3 °C 1011.1 hPa Calm     87 % 0 mm
18:00 15.5 °C 13.3 °C 1011.1 hPa Calm     87 % 0 mm
18:05 15.5 °C 13.3 °C 1010.7 hPa Calm     87 % 0 mm
18:10 15.6 °C 13.6 °C 1010.7 hPa Calm     88 % 0 mm
18:15 15.6 °C 13.6 °C 1010.7 hPa Calm     88 % 0 mm
18:20 15.5 °C 13.5 °C 1010.7 hPa Calm     88 % 0 mm
18:25 15.5 °C 13.5 °C 1010.7 hPa Calm     88 % 0 mm
18:31 15.6 °C 13.7 °C 1010.7 hPa Calm     89 % 0 mm
18:36 15.6 °C 13.9 °C 1010.7 hPa SE 0.2 km/h 1.9 km/h 90 % 0 mm
18:41 15.5 °C 13.7 °C 1010.7 hPa SE 0.2 km/h 1.9 km/h 89 % 0 mm
18:46 15.4 °C 13.7 °C 1010.7 hPa NE 1.1 km/h 1.9 km/h 89 % 0 mm
18:51 15.4 °C 13.6 °C 1010.7 hPa Calm     89 % 0 mm
18:57 15.4 °C 13.8 °C 1010.7 hPa NE 0.2 km/h 1.9 km/h 90 % 0 mm
19:02 15.3 °C 13.7 °C 1010.7 hPa Calm     90 % 0 mm
19:07 15.3 °C 13.5 °C 1011.1 hPa Calm   1.9 km/h 89 % 0 mm
19:09 15.3 °C 13.5 °C 1011.1 hPa Calm     89 % 0 mm
19:14 15.3 °C 13.5 °C 1011.1 hPa Calm     89 % 0 mm
19:19 15.3 °C 13.5 °C 1011.1 hPa Calm     89 % 0 mm
19:24 15.3 °C 13.5 °C 1011.1 hPa Calm     89 % 0 mm
19:29 15.3 °C 13.5 °C 1011.1 hPa Calm     89 % 0 mm
19:34 15.3 °C 13.5 °C 1011.4 hPa NE 0.2 km/h 3.7 km/h 89 % 0 mm
19:39 15.3 °C 13.5 °C 1011.1 hPa Calm     89 % 0 mm
19:44 15.3 °C 13.7 °C 1011.4 hPa NE 0.2 km/h 5.6 km/h 90 % 0 mm
19:49 15.2 °C 13.6 °C 1011.1 hPa ENE 0.2 km/h 1.9 km/h 90 % 0 mm
19:54 15.2 °C 13.7 °C 1011.1 hPa Calm     91 % 0 mm
19:59 15.2 °C 13.7 °C 1011.1 hPa ENE 0.3 km/h 1.9 km/h 91 % 0 mm
20:04 15.2 °C 13.6 °C 1011.1 hPa ENE 0.2 km/h 1.9 km/h 90 % 0 mm
20:09 15.1 °C 13.7 °C 1011.1 hPa Calm     91 % 0 mm
20:14 15.1 °C 13.4 °C 1011.1 hPa ENE 0.2 km/h 1.9 km/h 90 % 0 mm
20:20 15 °C 13.4 °C 1010.7 hPa Calm     90 % 0 mm
20:25 15 °C 13.6 °C 1011.1 hPa Calm     91 % 0 mm
20:30 15 °C 13.6 °C 1010.7 hPa Calm     91 % 0 mm
20:35 14.9 °C 13.5 °C 1010.7 hPa Calm     91 % 0 mm
20:40 14.9 °C 13.5 °C 1010.7 hPa Calm   1.9 km/h 91 % 0 mm
20:45 14.9 °C 13.4 °C 1010.4 hPa SE 0.2 km/h 1.9 km/h 91 % 0 mm
20:50 14.9 °C 13.4 °C 1010.7 hPa Calm   1.9 km/h 91 % 0 mm
21:00 14.8 °C 13.6 °C 1010.7 hPa Calm     92 % 0 mm
21:05 14.8 °C 13.5 °C 1010.7 hPa Calm     92 % 0 mm
21:10 14.8 °C 13.5 °C 1010.7 hPa ESE 1.6 km/h 3.7 km/h 92 % 0 mm
21:15 14.7 °C 13.4 °C 1010.7 hPa Calm     92 % 0 mm
21:20 14.7 °C 13.4 °C 1010.7 hPa Calm     92 % 0 mm
21:25 14.7 °C 13.4 °C 1010.7 hPa Calm     92 % 0 mm
21:30 14.7 °C 13.4 °C 1010.7 hPa Calm     92 % 0 mm
21:35 14.7 °C 13.4 °C 1010.7 hPa Calm     92 % 0 mm
21:40 14.7 °C 13.4 °C 1010.7 hPa Calm     92 % 0 mm
21:45 14.7 °C 13.4 °C 1010.7 hPa Calm     92 % 0 mm
21:51 14.6 °C 13.3 °C 1010.7 hPa Calm     92 % 0 mm
21:56 14.6 °C 13.3 °C 1010.7 hPa Calm     92 % 0 mm
22:01 14.6 °C 13.3 °C 1010.4 hPa Calm     92 % 0 mm
22:06 14.6 °C 13.3 °C 1010.4 hPa Calm     92 % 0 mm
22:11 14.5 °C 13.2 °C 1010.4 hPa Calm     92 % 0 mm
22:16 14.4 °C 13.2 °C 1010.4 hPa Calm     92 % 0 mm
22:21 14.4 °C 13.2 °C 1010.4 hPa Calm     92 % 0 mm
22:26 14.4 °C 13.2 °C 1010.4 hPa Calm     92 % 0 mm
22:31 14.3 °C 13.1 °C 1010.4 hPa Calm     92 % 0 mm
22:36 14.3 °C 13.1 °C 1010.4 hPa Calm     92 % 0 mm
22:41 14.3 °C 13.1 °C 1010.4 hPa Calm     92 % 0 mm
22:46 14.3 °C 13.1 °C 1010.4 hPa Calm     92 % 0 mm
22:51 14.3 °C 13.2 °C 1010 hPa Calm     93 % 0 mm
22:56 14.3 °C 13.2 °C 1010 hPa Calm     93 % 0 mm
23:01 14.3 °C 13.2 °C 1010 hPa Calm     93 % 0 mm
23:06 14.3 °C 13.2 °C 1009.7 hPa Calm     93 % 0 mm
23:11 14.3 °C 13.2 °C 1009.7 hPa Calm     93 % 0 mm
23:16 14.3 °C 13.2 °C 1009.4 hPa Calm     93 % 0 mm
23:21 14.3 °C 13.2 °C 1009 hPa ESE 0.2 km/h 3.7 km/h 93 % 0 mm
23:26 14.3 °C 13.2 °C 1009 hPa Calm   1.9 km/h 93 % 0 mm
23:32 14.3 °C 13.2 °C 1009 hPa ESE 0.3 km/h 1.6 km/h 93 % 0 mm
23:37 14.3 °C 13.2 °C 1009.4 hPa East 1.3 km/h 3.7 km/h 93 % 0 mm
23:42 14.3 °C 13.2 °C 1009.4 hPa Calm   5.6 km/h 93 % 0 mm
23:47 14.2 °C 13.1 °C 1009.4 hPa Calm   1.9 km/h 93 % 0 mm
23:52 14.2 °C 13.1 °C 1009 hPa Calm     93 % 0 mm
23:57 14.2 °C 13.1 °C 1009 hPa Calm   1.6 km/h 93 % 0 mm
Crab Meadow Weather
Compliments of Weather Underground - 3 mb

Script developed by  Jim McMurry - jmcmurry@mwt.net Adapted for the template by  Wim van der Kuil - Leuven-Template.eu

Recycling: Americans use 85,000,000 tons of paper a year; about 680 pounds per person.